Location: ??????????
(41.2581°N, 22.8006°E)
Time: 14:09:41
(UTC+00:00)

SMAP - Pass Details

Date: 13 December 2025
Orbit: 681 x 683 km, 98.1° (Epoch: 19 January)

Event Time Altitude Azimuth Distance (km) Brightness Sun altitude
Rises 15:32:29 0° 154° (SSE) 3,032 6.4 -6.2°
Reaches altitude 10° 15:34:45 10° 150° (SSE) 2,121 5.6 -6.6°
Maximum altitude 15:39:17 56° 73° (ENE) 813 3.1 -7.4°
Drops below altitude 10° 15:43:51 10° 356° (N) 2,136 5.4 -8.1°
Sets 15:46:07 0° 352° (N) 3,056 6.3 -8.5°
